Regional Weather Roundup
Issued by NWS

Home | Current Version | Previous Version | Text Only | Print | Product List | Glossary On
Versions: 1 2 3 4 5 6 7 8 9 10 11 12 13 14 15 16 17 18 19 20 21 22 23 24 25 26 27 28
000
ASUS45 KTFX 032010
RWRMT
MONTANA REGIONAL WEATHER ROUNDUP
NATIONAL WEATHER SERVICE GREAT FALLS MT
200 PM MDT TUE MAY 03 2016

NOTE: "FAIR" INDICATES FEW OR NO CLOUDS BELOW 12000 FEET WITH NO
SIGNIFICANT WEATHER AND/OR OBSTRUCTIONS TO VISIBILITY.

MTZ001>007-043-032100-
WEST OF THE DIVIDE

CITY           SKY/WX    TMP DP  RH WIND       PRES   REMARKS
KALISPELL      SUNNY     74  41  30 S6        30.09F
MISSOULA       SUNNY     72  38  29 CALM      30.12F
BUTTE          SUNNY     70  21  15 N7        30.20F
MULLAN PASS    MOSUNNY   64  30  27 CALM      30.22F
$$

MTZ008-052>055-032100-
SOUTHWEST MONTANA

CITY           SKY/WX    TMP DP  RH WIND       PRES   REMARKS
BOZEMAN        SUNNY     71  28  20 VRB3      30.17F
DILLON         SUNNY     70  25  18 SW6       30.18F
ENNIS          SUNNY     70  27  19 CALM      30.25S
$$

MTZ009-010-012-014-046-048-049-054-032100-
EAST SLOPES AND CENTRAL MONTANA

CITY           SKY/WX    TMP DP  RH WIND       PRES   REMARKS
CUT BANK         N/A     75  32  20 VRB3      30.09F
GREAT FALLS    SUNNY     76  32  20 SW5       30.09F
MALMSTROM AFB  SUNNY     75  34  22 S2        30.09F
HELENA         SUNNY     75  33  21 VRB7      30.13F
$$

MTZ011-013-016-021-045-047-050-051-032100-
NORTH CENTRAL MONTANA

CITY           SKY/WX    TMP DP  RH WIND       PRES   REMARKS
HAVRE          SUNNY     76  45  33 VRB3      30.07F
LEWISTOWN      SUNNY     75  35  23 SE7       30.13F
N BAR RANCH      N/A     72  34  25 SE12      30.16F
$$

MTZ017>020-022>027-061-062-032100-
NORTHEAST MONTANA

CITY           SKY/WX    TMP DP  RH WIND       PRES   REMARKS
GLASGOW        SUNNY     78  37  22 E5        30.07F
JORDAN           N/A     77  38  24 N9        30.09F
SIDNEY         SUNNY     79  39  24 N14       30.06S
WOLF POINT     SUNNY     80  39  23 N6        30.06F
$$

MTZ028>42-056>058-032100-
SOUTHCENTRAL AND SOUTHEAST MONTANA

CITY           SKY/WX    TMP DP  RH WIND       PRES   REMARKS
BAKER          SUNNY     74  32  21 NW8       30.09F
BILLINGS       MOSUNNY   73  34  23 VRB3      30.14F
LIVINGSTON     SUNNY     74  30  19 VRB3      30.15F
MILES CITY     SUNNY     76  37  24 VRB5      30.09F
$$

REGIONAL REPORTS...DAKOTAS

CITY           SKY/WX    TMP DP  RH WIND       PRES   REMARKS
WILLISTON      SUNNY     80  38  22 N14       30.03F
MINOT          SUNNY     78  31  17 N16G28    30.00F
DICKINSON      SUNNY     74  35  24 NW20G26   30.03S
BEACH            N/A     73  32  21 N17       30.11S
CROSBY           N/A     77  36  22 NE12G21   30.05S
TIOGA            N/A     77  36  22 N18G25    30.09R
WATFORD CITY     N/A     77  37  24 N16       30.04S
BISMARCK       SUNNY     76  38  25 N21G31    29.97S
GRAND FORKS    SUNNY     67  31  26 N24G53    29.89R
FARGO          SUNNY     71  27  19 N30G39    29.84S
BUFFALO SD       N/A     74  33  22 N14G23    30.02S
RAPID CITY     SUNNY     72  41  32 N21       30.08F
$$

REGIONAL REPORTS...WYOMING/IDAHO/WASHINGTON

CITY           SKY/WX    TMP DP  RH WIND       PRES   REMARKS
GILLETTE       MOSUNNY   69  40  34 NW15      30.16F
SHERIDAN       SUNNY     73  38  27 NE8       30.16F
BUFFALO WY     SUNNY     69  35  28 VRB3      30.20S
CODY           SUNNY     70  30  23 W5        30.18F
YELLOWSTONE LA   N/A     52  18  26 SE5       30.35F
IDAHO FALLS    SUNNY     70  29  21 NW8       30.23F
SALMON         SUNNY     70  34  26 NW3       30.13F
BOISE          SUNNY     78  28  16 S12G23    30.11F
SPOKANE        MOSUNNY   79  35  20 E9        30.05F
$$

REGIONAL REPORTS...ALBERTA

CITY           SKY/WX    TMP DP  RH WIND       PRES   REMARKS
EDMONTON       SUNNY     84  37  18 SW5       29.91F
CALGARY        MOSUNNY   79  28  15 S6        30.01F
LETHBRIDGE     SUNNY     82  27  13 W18       30.01F
MEDICINE HAT   MOSUNNY   81  37  21 S8G17     30.01F
$$

REGIONAL REPORTS...SASKATCHEWAN

CITY           SKY/WX    TMP DP  RH WIND       PRES   REMARKS
SWIFT CURRENT  SUNNY     79  36  21 VRB10     30.04F
REGINA         MOSUNNY   79  39  24 N7        30.04S
SASKATOON      PTSUNNY   82  37  20 W5        30.01F
$$




USA.gov is the U.S. government's official web portal to all federal, state and local government web resources and services.